SCP
0 0 0 0 0 0 0 0 0 0 0 0 0 0 0 0 0 0 0 0 0 0 0 0 0 0 0 0 0 0 0 0 0 0 0 0 0 0 0 0 0 0 0 0
0 0 0 0 0 0 0 0 0 0 0 0 0 0 0 0 0 0 0 0 0 0 0 0 0 0 0 0 0 0 0 0 0 0 0 0 0 0 0 0 0 0 0 0
0 0 0 0 0 0 0 0 0 0 0 0 0 0 0 0 0 0 0 0 0 0 0 0 0 0 0 0 0 0 0 0 0 0 0 0 0 0 0 0 0 0 0 0
0 0 0 0 0 0 0 0 0 0 0 0 0 0 0 0 0 0 0 0 0 0 0 0 0 0 0 0 0 0 0 0 0 0 0 0 0 0 0 0 0 0 0 0
0 0 0 0 0 0 0 0 0 0 0 0 0 0 0 0 0 0 0 0 0 0 0 0 0 0 0 0 0 0 0 0 0 0 0 0 0 0 0 0 0 0 0 0
0 0 0 0 0 0 0 0 0 0 0 0 0 0 0 0 0 0 0 0 0 0 0 0 0 0 0 0 0 0 0 0 0 0 0 0 0 0 0 0 0 0 0 0
0 0 0 0 0 0 0 0 0 0 0 0 0 0 0 0 0 0 0 0 0 0 0 0 0 0 0 0 0 0 0 0 0 0 0 0 0 0 0 0 0 0 0 0
0 0 0 0 0 0 0 0 0 0 0 0 0 0 0 0 0 0 0 0 0 0 0 0 0 0 0 0 0 0 0 0 0 0 0 0 0 0 0 0 0 0 0 0
0 0 0 0 0 0 0 0 0 0 0 0 0 0 0 0 0 0 0 0 0 0 0 0 0 0 0 0 0 0 0 0 0 0 0 0 0 0 0 0 0 0 0 0
0 0 0 0 0 0 0 0 0 0 0 0 0 0 0 0 0 0 0 0 0 0 0 0 0 0 0 0 0 0 0 0 0 0 0 0 0 0 0 0 0 0 0 0
0 0 0 0 0 0 0 0 0 0 0 0 0 0 0 0 0 0 0 0 0 0 0 0 0 0 0 0 0 0 0 0 0 0 0 0 0 0 0 0 0 0 0 0
0 0 0 0 0 0 0 0 0 0 0 0 0 0 0 0 0 0 0 0 0 0 0 0 0 0 0 0 0 0 0 0 0 0 0 0 0 0 0 0 0 0 0 0
0 0 0 0 0 0 0 0 0 0 0 0 0 0 0 0 0 0 0 0 0 0 0 0 0 0 0 0 0 0 0 0 0 0 0 0 0 0 0 0 0 0 0 0
0 0 0 0 0 0 0 0 0 0 0 0 0 0 0 0 0 0 0 0 0 0 0 0 0 0 0 0 0 0 0 0 0 0 0 0 0 0 0 0 0 0 0 0
0 0 0 0 0 0 0 0 0 0 0 0 0 0 0 0 0 0 0 0 0 0 0 0 0 0 0 0 0 0 0 0 0 0 0 0 0 0 0 0 0 0 0 0
0 0 0 0 0 0 0 0 0 0 0 0 0 0 0 0 0 0 0 0 0 0 0 0 0 0 0 0 0 0 0 0 0 0 0 0 0 0 0 0 0 0 0 0
0 0 0 0 0 0 0 0 0 0 0 0 0 0 0 0 0 0 0 0 0 0 0 0 0 0 0 0 0 0 0 0 0 0 0 0 0 0 0 0 0 0 0 0
0 0 0 0 0 0 0 0 0 0 0 0 0 0 0 0 0 0 0 0 0 0 0 0 0 0 0 0 0 0 0 0 0 0 0 0 0 0 0 0 0 0 0 0
0 0 0 0 0 0 0 0 0 0 0 0 0 0 0 0 0 0 0 0 0 0 0 0 0 0 0 0 0 0 0 0 0 0 0 0 0 0 0 0 0 0 0 0
0 0 0 0 0 0 0 0 0 0 0 0 0 0 0 0 0 0 0 0 0 0 0 0 0 0 0 0 0 0 0 0 0 0 0 0 0 0 0 0 0 0 0 0
0 0 0 0 0 0 0 0 0 0 0 0 0 0 0 0 0 0 0 0 0 0 0 0 0 0 0 0 0 0 0 0 0 0 0 0 0 0 0 0 0 0 0 0
0 0 0 0 0 0 0 0 0 0 0 0 0 0 0 0 0 0 0 0 0 0 0 0 0 0 0 0 0 0 0 0 0 0 0 0 0 0 0 0 0 0 0 0
0 0 0 0 0 0 0 0 0 0 0 0 0 0 0 0 0 0 0 0 0 0 0 0 0 0 0 0 0 0 0 0 0 0 0 0 0 0 0 0 0 0 0 0
0 0 0 0 0 0 0 0 0 0 0 0 0 0 0 0 0 0 0 0 0 0 0 0 0 0 0 0 0 0 0 0 0 0 0 0 0 0 0 0 0 0 0 0
0 0 0 0 0 0 0 0 0 0 0 0 0 0 0 0 0 0 0 0 0 0 0 0 0 0 0 0 0 0 0 0 0 0 0 0 0 0 0 0 0 0 0 0
0 0 0 0 0 0 0 0 0 0 0 0 0 0 0 0 0 0 0 0 0 0 0 0 0 0 0 0 0 0 0 0 0 0 0 0 0 0 0 0 0 0 0 0
Wind_Speed
6 6 11 13 10 2 6 7 7 6 4 6 9 11 11 6 6 8 9 10 13 16 12 8 9 10 10 10 11 12 13 11 9 7 6 6 6 5 5 5 6 7 7 7
6 11 7 7 7 3 4 6 6 2 1 4 5 10 10 7 8 10 12 14 15 13 8 9 10 11 13 14 14 14 14 13 12 9 7 4 4 4 4 5 6 7 7 7
9 4 10 8 7 9 6 6 5 3 1 0 2 9 11 9 7 7 8 10 10 13 14 13 12 14 14 16 16 14 15 14 13 11 6 4 3 3 3 4 5 6 7 8
6 4 9 11 10 10 8 4 3 3 2 3 4 7 10 9 10 11 12 10 12 13 13 12 12 13 16 17 14 14 15 14 13 13 10 10 9 8 7 5 5 5 6 7
9 8 10 13 10 9 4 5 5 3 1 2 4 6 10 5 12 14 14 14 15 14 14 14 15 15 14 13 13 13 13 14 14 14 14 13 10 7 5 5 6 5 4 5
4 5 8 8 7 9 7 7 6 4 2 7 9 7 11 9 12 9 11 14 15 13 13 13 11 9 9 9 10 11 13 14 14 15 15 15 13 10 8 7 7 5 3 3
5 4 4 5 9 7 7 8 4 4 6 9 5 8 13 9 9 11 13 14 13 12 11 11 10 11 11 11 12 12 14 15 14 15 15 15 14 13 12 10 9 7 5 3
12 9 11 8 10 11 10 9 8 8 7 4 4 11 11 8 6 6 7 7 7 8 9 10 11 11 10 11 11 12 13 14 14 15 15 13 13 10 8 9 8 8 6 5
14 8 6 8 7 13 11 9 4 4 1 3 7 9 11 6 7 8 8 8 10 10 9 9 7 7 8 9 9 10 12 12 12 13 12 11 11 10 9 8 8 6 6 6
10 7 5 6 6 4 9 10 6 5 6 6 6 7 7 6 9 10 9 11 11 7 7 6 6 6 5 5 5 5 7 9 9 10 9 8 9 9 9 9 10 9 8 8
6 8 5 6 11 14 9 9 7 7 5 6 5 9 9 10 10 10 11 9 7 6 6 6 5 4 4 4 5 5 5 6 6 8 8 8 8 9 10 9 10 10 9 9
6 7 5 5 3 8 9 11 11 10 8 6 4 10 5 6 5 5 6 5 4 5 5 5 5 5 5 5 5 5 5 5 5 6 7 8 9 9 10 10 10 10 11 9
9 9 8 3 3 5 7 8 11 7 4 5 7 11 4 3 5 5 6 5 4 4 5 5 5 6 5 5 5 5 5 5 5 6 8 9 9 10 10 11 10 10 11 10
9 7 10 15 10 10 7 7 10 9 8 10 14 12 10 9 7 6 4 4 3 4 5 6 6 6 6 5 5 5 5 5 6 7 8 9 9 9 10 10 10 10 10 11
9 8 6 5 6 11 10 12 13 14 15 15 16 16 16 12 9 6 4 3 4 6 7 9 8 7 7 6 6 6 6 6 7 7 8 8 8 9 10 10 10 10 9 9
8 8 6 2 3 7 7 12 17 18 17 17 13 16 10 7 6 6 6 6 8 10 10 10 10 10 10 9 8 8 7 7 7 8 8 8 9 9 10 10 10 10 9 9
8 9 8 5 3 4 9 15 17 13 12 13 20 20 5 7 9 11 9 9 12 12 11 12 13 12 11 11 10 10 9 7 7 8 8 9 9 10 10 10 10 10 9 9
12 10 6 6 6 10 14 8 13 16 16 16 13 7 9 13 11 8 8 10 12 10 10 11 11 11 9 9 9 9 9 9 8 9 9 9 10 10 10 9 9 9 8 8
9 12 7 6 7 11 8 6 11 12 15 15 16 13 8 3 2 6 8 9 11 11 9 9 9 9 10 11 11 11 10 9 10 10 10 10 10 11 11 11 10 8 8 7
4 8 8 7 8 14 11 7 7 6 13 10 12 14 10 7 6 10 5 7 8 7 5 5 6 8 10 11 12 12 12 11 12 11 10 9 9 11 11 10 9 6 7 7
7 6 8 8 9 12 7 4 10 10 13 5 8 9 10 12 12 5 1 1 2 2 2 5 7 8 9 11 12 12 12 12 10 8 9 8 8 8 9 8 7 8 8 8
13 10 10 8 9 13 5 10 13 10 3 3 4 5 7 8 5 2 2 2 2 1 2 4 6 6 7 10 12 12 11 9 9 9 9 9 8 8 8 9 8 7 8 8
9 11 9 12 11 3 8 9 5 3 4 3 3 2 4 3 2 1 1 2 2 2 1 2 4 5 5 7 10 11 8 9 10 10 10 9 8 7 8 9 10 8 7 7
4 3 6 4 5 3 4 1 1 2 2 2 2 2 2 3 1 1 1 2 2 2 1 2 4 5 4 4 5 6 8 10 11 11 9 9 9 8 7 6 7 7 8 7
6 6 5 4 2 1 2 3 3 3 3 4 4 3 2 3 2 2 1 1 1 1 1 1 2 3 3 4 5 6 9 10 10 10 9 8 7 8 7 6 5 6 5 6
3 6 8 7 7 7 5 3 4 5 4 4 4 4 4 3 3 3 2 2 2 2 2 2 2 3 3 4 5 5 7 9 10 9 8 7 7 6 6 6 4 6 6 8
Wind_Direction
149 168 197 194 192 182 168 178 203 215 196 188 223 238 249 233 219 229 221 214 218 224 221 202 197 194 191 192 192 192 192 191 183 180 183 187 197 195 193 193 189 188 187 186
149 215 192 151 174 188 181 196 208 233 158 187 244 255 254 231 219 219 216 217 220 225 220 211 201 197 199 199 199 197 197 193 190 192 186 180 173 184 192 189 191 192 190 188
180 184 154 157 177 195 206 201 190 187 58 137 292 278 254 247 230 235 229 224 223 220 220 214 205 205 204 205 203 201 199 196 194 188 174 154 148 150 175 190 194 198 196 192
192 176 159 171 190 183 212 188 165 125 129 240 200 258 257 234 238 234 229 222 224 223 221 216 208 207 209 210 204 202 198 196 193 187 185 183 190 196 194 183 184 188 193 193
198 171 169 188 186 162 158 135 130 117 139 276 233 241 267 225 233 236 229 224 226 224 218 216 212 211 210 206 202 201 198 197 193 191 193 194 199 197 174 165 173 179 181 186
174 178 180 181 151 147 118 87 70 72 100 247 217 211 263 222 218 224 226 224 225 223 219 219 215 207 206 199 197 196 196 199 195 195 196 198 197 187 174 174 175 172 169 171
177 202 198 147 136 149 146 133 143 177 205 242 177 208 248 240 222 215 218 221 222 219 214 213 207 202 201 195 196 195 197 201 197 198 200 200 197 191 188 182 178 171 169 171
170 203 195 177 165 168 178 167 173 184 206 249 191 230 250 246 249 252 256 250 240 226 216 214 210 204 201 196 192 193 198 201 197 200 201 198 195 193 190 180 172 172 169 164
175 199 168 175 152 147 164 194 169 126 121 236 239 262 292 257 261 255 253 250 241 229 217 216 209 199 195 191 191 193 196 199 199 199 196 192 189 184 175 165 158 151 145 140
141 160 173 156 120 166 164 153 146 169 185 235 263 251 244 240 232 238 237 237 240 227 212 206 197 190 186 182 177 182 192 196 194 193 189 183 178 171 161 154 150 146 142 137
126 132 143 160 180 174 153 165 167 170 194 191 242 259 224 218 217 224 233 235 234 220 207 196 185 174 164 158 161 170 178 180 181 180 172 164 161 154 150 150 148 145 141 142
135 120 146 211 229 175 166 173 166 180 206 201 222 264 258 235 257 270 277 276 246 215 195 180 174 168 166 166 164 165 167 169 170 162 155 153 148 146 146 144 143 142 139 138
145 129 115 122 197 192 199 186 187 187 165 187 211 257 282 271 276 265 265 268 245 209 185 174 177 183 181 175 167 161 159 155 150 148 148 146 147 147 145 141 140 139 136 133
137 144 170 189 194 166 183 190 182 174 201 224 232 248 282 286 282 280 265 250 226 209 195 192 197 196 189 180 171 162 158 151 147 145 146 147 147 144 140 138 138 136 136 135
150 182 192 191 164 158 178 186 183 197 209 218 233 232 239 252 263 270 250 224 218 222 213 207 205 199 191 183 176 166 160 154 150 147 146 144 135 131 132 133 132 128 127 129
162 172 161 171 177 175 191 198 196 208 217 229 242 247 235 238 250 260 239 218 226 228 221 213 206 200 197 190 181 172 166 160 152 150 146 140 137 135 135 135 131 127 125 126
162 145 153 192 137 114 235 210 200 210 215 210 233 242 211 227 233 239 237 225 230 230 220 212 209 205 199 190 180 176 168 156 152 148 145 147 145 141 140 137 133 135 134 132
161 150 141 139 135 216 235 194 193 211 226 217 227 233 207 221 232 234 224 221 234 231 222 216 208 202 189 175 169 160 154 157 157 155 155 155 151 146 142 139 139 137 136 138
161 151 137 149 194 250 266 206 187 198 239 225 228 235 232 225 279 267 235 219 229 228 219 212 198 185 172 170 164 156 159 162 165 168 167 165 159 152 150 149 146 140 138 135
128 139 143 156 190 230 240 201 167 155 253 230 213 224 215 162 224 254 243 220 235 232 214 190 167 160 167 168 159 162 169 173 181 177 168 161 158 157 156 152 145 135 138 137
139 152 172 174 209 249 238 162 135 183 239 222 199 208 189 193 219 247 338 239 244 227 187 160 159 169 172 162 161 171 176 187 177 156 149 150 152 151 146 138 135 136 133 131
166 168 183 170 207 238 186 148 178 209 183 164 173 190 194 215 241 287 347 358 18 50 104 146 158 164 157 160 167 177 187 171 145 144 147 149 146 143 141 138 135 136 138 138
188 184 178 190 214 196 170 187 198 157 167 174 166 179 181 197 228 254 340 13 17 35 86 131 150 149 152 167 175 182 170 145 144 146 150 147 142 140 146 148 147 145 148 151
232 150 146 192 230 201 192 180 136 143 150 127 121 123 140 155 145 117 57 30 25 31 59 104 134 151 164 169 172 159 142 145 148 152 151 151 150 148 147 150 156 159 165 166
182 161 162 196 192 122 239 206 172 128 107 96 82 79 95 118 102 107 97 60 48 48 53 101 137 152 155 146 143 137 144 148 150 151 152 154 156 156 157 159 172 172 179 180
179 172 175 201 189 174 188 180 153 134 123 120 112 86 62 79 98 94 80 63 66 69 71 87 98 117 131 136 136 139 150 154 153 155 160 162 161 160 160 158 153 193 184 194